EZY1224 EGNV-EGCC

Flight info

Callsign EZY1224
Flight time 0h 24m
Altitude 14000
Route GASKO DCT SETEL
Aircraft A20N/M-SDE2E3FGHIRWXY/LB1

Departure

Time 2026-05-03 21:32
Airport Teesside International Airport (EGNV)

Arrival

Time 2026-05-03 21:57
Airport Manchester Airport (EGCC)
Time Latitude Longitude Altitude Speed Heading
2026-05-03 21:14 54.51146 -1.43245 185 ft 0 kts 329°
2026-05-03 21:23 54.51146 -1.43244 185 ft 2 kts 329°
2026-05-03 21:24 54.51130 -1.43229 126 ft 3 kts 317°
2026-05-03 21:24 54.51123 -1.43202 128 ft 3 kts 242°
2026-05-03 21:24 54.51124 -1.43200 125 ft 0 kts 236°
2026-05-03 21:26 54.51119 -1.43210 129 ft 1 kts 227°
2026-05-03 21:27 54.51111 -1.43218 130 ft 1 kts 210°
2026-05-03 21:27 54.51093 -1.43236 129 ft 10 kts 210°
2026-05-03 21:27 54.51036 -1.43314 128 ft 9 kts 224°
2026-05-03 21:27 54.50996 -1.43402 130 ft 12 kts 236°
2026-05-03 21:28 54.50948 -1.43535 125 ft 12 kts 239°
2026-05-03 21:28 54.50902 -1.43636 130 ft 9 kts 225°
2026-05-03 21:28 54.50857 -1.43699 128 ft 8 kts 215°
2026-05-03 21:28 54.50810 -1.43749 129 ft 7 kts 204°
2026-05-03 21:29 54.50769 -1.43768 127 ft 6 kts 189°
2026-05-03 21:29 54.50719 -1.43787 130 ft 11 kts 202°
2026-05-03 21:29 54.50643 -1.43895 126 ft 14 kts 227°
2026-05-03 21:29 54.50581 -1.44012 125 ft 12 kts 227°
2026-05-03 21:30 54.50530 -1.44107 130 ft 11 kts 227°
2026-05-03 21:30 54.50483 -1.44194 129 ft 9 kts 227°
2026-05-03 21:30 54.50422 -1.44306 128 ft 15 kts 224°
2026-05-03 21:30 54.50338 -1.44364 130 ft 11 kts 172°
2026-05-03 21:31 54.50279 -1.44312 130 ft 8 kts 137°
2026-05-03 21:31 54.50258 -1.44256 131 ft 3 kts 110°
2026-05-03 21:31 54.50256 -1.44232 126 ft 1 kts 96°
2026-05-03 21:31 54.50258 -1.44198 131 ft 4 kts 77°
2026-05-03 21:32 54.50307 -1.44083 132 ft 28 kts 48°
2026-05-03 21:32 54.50605 -1.43535 127 ft 97 kts 47°
2026-05-03 21:32 54.51184 -1.42472 371 ft 130 kts 45°
2026-05-03 21:32 54.51782 -1.41386 1133 ft 123 kts 47°
2026-05-03 21:33 54.52364 -1.40006 1411 ft 165 kts 71°
2026-05-03 21:33 54.52220 -1.37827 1645 ft 214 kts 117°
2026-05-03 21:33 54.50929 -1.36151 2036 ft 261 kts 161°
2026-05-03 21:33 54.49053 -1.36359 2630 ft 293 kts 200°
2026-05-03 21:34 54.47458 -1.38601 3515 ft 305 kts 237°
2026-05-03 21:34 54.46815 -1.41973 5007 ft 292 kts 266°
2026-05-03 21:34 54.46837 -1.45351 6555 ft 275 kts 274°
2026-05-03 21:34 54.46980 -1.48600 7753 ft 273 kts 270°
2026-05-03 21:35 54.46541 -1.51760 8723 ft 276 kts 243°
2026-05-03 21:35 54.45472 -1.54522 9729 ft 280 kts 229°
2026-05-03 21:35 54.44118 -1.56993 10483 ft 292 kts 224°
2026-05-03 21:35 54.42577 -1.59482 10909 ft 316 kts 222°
2026-05-03 21:36 54.41460 -1.61260 11197 ft 332 kts 223°
2026-05-03 21:36 54.39746 -1.64071 11793 ft 347 kts 224°
2026-05-03 21:36 54.38026 -1.67024 12673 ft 354 kts 225°
2026-05-03 21:36 54.36305 -1.70088 13441 ft 359 kts 226°
2026-05-03 21:37 54.34587 -1.73224 13831 ft 362 kts 227°
2026-05-03 21:37 54.32875 -1.76389 13908 ft 362 kts 227°
2026-05-03 21:37 54.31187 -1.79523 13915 ft 363 kts 227°
2026-05-03 21:37 54.29469 -1.82710 13913 ft 365 kts 227°
2026-05-03 21:38 54.27747 -1.85895 13914 ft 364 kts 227°
2026-05-03 21:38 54.26025 -1.89069 13918 ft 364 kts 227°
2026-05-03 21:38 54.24304 -1.92232 13921 ft 364 kts 227°
2026-05-03 21:38 54.22618 -1.95475 13911 ft 364 kts 231°
2026-05-03 21:39 54.21067 -1.98869 13913 ft 360 kts 232°
2026-05-03 21:39 54.19554 -2.02268 13915 ft 359 kts 233°
2026-05-03 21:39 54.18011 -2.05632 13922 ft 360 kts 227°
2026-05-03 21:39 54.16083 -2.08339 13944 ft 360 kts 212°
2026-05-03 21:40 54.13779 -2.10000 13928 ft 361 kts 199°
2026-05-03 21:40 54.11383 -2.11297 13924 ft 362 kts 198°
2026-05-03 21:40 54.08983 -2.12672 13911 ft 367 kts 198°
2026-05-03 21:40 54.06535 -2.13942 13906 ft 369 kts 198°
2026-05-03 21:41 54.04046 -2.15253 13967 ft 379 kts 198°
2026-05-03 21:41 54.01547 -2.16576 13465 ft 375 kts 198°
2026-05-03 21:41 53.99034 -2.17912 12324 ft 383 kts 198°
2026-05-03 21:41 53.96466 -2.19278 11196 ft 390 kts 199°
2026-05-03 21:42 53.93883 -2.20651 10431 ft 386 kts 198°
2026-05-03 21:42 53.91357 -2.21994 9973 ft 374 kts 198°
2026-05-03 21:42 53.88911 -2.23292 9482 ft 363 kts 199°
2026-05-03 21:42 53.86537 -2.24550 8970 ft 353 kts 198°
2026-05-03 21:43 53.84222 -2.25777 8467 ft 344 kts 198°
2026-05-03 21:43 53.81966 -2.26971 8033 ft 335 kts 198°
2026-05-03 21:43 53.79797 -2.28118 7897 ft 318 kts 198°
2026-05-03 21:43 53.77746 -2.29201 7879 ft 299 kts 198°
2026-05-03 21:44 53.75813 -2.30220 7886 ft 285 kts 198°
2026-05-03 21:44 53.73941 -2.31208 7879 ft 276 kts 198°
2026-05-03 21:44 53.72153 -2.32150 7883 ft 264 kts 199°
2026-05-03 21:44 53.70416 -2.33064 7883 ft 260 kts 198°
2026-05-03 21:45 53.68689 -2.33974 7884 ft 260 kts 199°
2026-05-03 21:45 53.66956 -2.34846 7886 ft 260 kts 198°
2026-05-03 21:45 53.65279 -2.35975 7697 ft 259 kts 208°
2026-05-03 21:45 53.63673 -2.37359 7303 ft 260 kts 210°
2026-05-03 21:46 53.62085 -2.38802 6937 ft 259 kts 210°
2026-05-03 21:46 53.60500 -2.40257 6572 ft 259 kts 210°
2026-05-03 21:46 53.58921 -2.41721 6232 ft 258 kts 210°
2026-05-03 21:46 53.57349 -2.43189 5847 ft 259 kts 210°
2026-05-03 21:47 53.55800 -2.44633 5507 ft 257 kts 210°
2026-05-03 21:47 53.54231 -2.46083 5142 ft 257 kts 210°
2026-05-03 21:47 53.52676 -2.47529 4939 ft 253 kts 210°
2026-05-03 21:47 53.51134 -2.48959 4905 ft 253 kts 210°
2026-05-03 21:48 53.49589 -2.50396 4908 ft 254 kts 210°
2026-05-03 21:48 53.48039 -2.51831 4909 ft 255 kts 210°
2026-05-03 21:48 53.46487 -2.53265 4908 ft 255 kts 210°
2026-05-03 21:48 53.44930 -2.54701 4923 ft 256 kts 210°
2026-05-03 21:49 53.43374 -2.56131 4905 ft 255 kts 210°
2026-05-03 21:49 53.41821 -2.57560 4901 ft 254 kts 209°
2026-05-03 21:49 53.40277 -2.58995 4900 ft 254 kts 210°
2026-05-03 21:49 53.38730 -2.60434 4908 ft 255 kts 210°
2026-05-03 21:50 53.37180 -2.61880 4906 ft 255 kts 210°
2026-05-03 21:50 53.35577 -2.63157 4898 ft 256 kts 194°
2026-05-03 21:50 53.33815 -2.63222 4722 ft 255 kts 165°
2026-05-03 21:50 53.32177 -2.62158 4351 ft 252 kts 152°
2026-05-03 21:51 53.30626 -2.60798 4006 ft 251 kts 150°
2026-05-03 21:51 53.29098 -2.59414 3709 ft 248 kts 150°
2026-05-03 21:51 53.27600 -2.58056 3518 ft 241 kts 150°
2026-05-03 21:51 53.26141 -2.56753 3262 ft 235 kts 150°
2026-05-03 21:52 53.24719 -2.55483 2987 ft 229 kts 149°
2026-05-03 21:52 53.23529 -2.53832 2901 ft 218 kts 118°
2026-05-03 21:52 53.23282 -2.51582 2894 ft 186 kts 73°
2026-05-03 21:52 53.24015 -2.49965 2903 ft 176 kts 37°
2026-05-03 21:53 53.24963 -2.48670 2908 ft 177 kts 42°
2026-05-03 21:53 53.25803 -2.47227 2896 ft 166 kts 48°
2026-05-03 21:53 53.26509 -2.45801 2892 ft 156 kts 50°
2026-05-03 21:53 53.27186 -2.44394 2652 ft 156 kts 49°
2026-05-03 21:54 53.27871 -2.42987 2422 ft 157 kts 50°
2026-05-03 21:54 53.28558 -2.41572 2201 ft 156 kts 50°
2026-05-03 21:54 53.29239 -2.40166 1980 ft 153 kts 50°
2026-05-03 21:54 53.29881 -2.38838 1765 ft 142 kts 50°
2026-05-03 21:55 53.30493 -2.37563 1535 ft 140 kts 49°
2026-05-03 21:55 53.31119 -2.36321 1380 ft 139 kts 49°
2026-05-03 21:55 53.31718 -2.35047 1190 ft 140 kts 51°
2026-05-03 21:55 53.32316 -2.33788 1011 ft 137 kts 48°
2026-05-03 21:56 53.32933 -2.32571 849 ft 137 kts 51°
2026-05-03 21:56 53.33529 -2.31321 682 ft 137 kts 51°
2026-05-03 21:56 53.34131 -2.30084 506 ft 137 kts 51°
2026-05-03 21:56 53.34721 -2.28838 330 ft 136 kts 51°
2026-05-03 21:57 53.35285 -2.27677 254 ft 101 kts 50°
2026-05-03 21:57 53.35518 -2.27201 245 ft 33 kts 51°
2026-05-03 21:57 53.35670 -2.27016 242 ft 16 kts 14°
2026-05-03 21:57 53.35782 -2.26961 240 ft 18 kts 17°
2026-05-03 21:58 53.35819 -2.26964 240 ft 2 kts 331°
2026-05-03 21:58 53.35829 -2.26976 240 ft 0 kts 308°
2026-05-03 21:58 53.35826 -2.27020 241 ft 10 kts 254°
2026-05-03 21:58 53.35799 -2.27084 242 ft 5 kts 232°
2026-05-03 21:59 53.35779 -2.27126 242 ft 4 kts 232°
2026-05-03 21:59 53.35764 -2.27158 243 ft 3 kts 232°
2026-05-03 21:59 53.35750 -2.27188 243 ft 6 kts 230°
2026-05-03 21:59 53.35711 -2.27267 244 ft 9 kts 230°
2026-05-03 22:00 53.35674 -2.27338 246 ft 7 kts 229°
2026-05-03 22:00 53.35645 -2.27398 247 ft 8 kts 232°
2026-05-03 22:00 53.35634 -2.27528 249 ft 11 kts 302°
2026-05-03 22:00 53.35684 -2.27603 250 ft 9 kts 328°
2026-05-03 22:01 53.35736 -2.27646 250 ft 8 kts 336°
2026-05-03 22:01 53.35786 -2.27691 251 ft 8 kts 321°
2026-05-03 22:01 53.35821 -2.27751 252 ft 7 kts 312°
2026-05-03 22:01 53.35852 -2.27805 252 ft 8 kts 315°
2026-05-03 22:02 53.35932 -2.27841 252 ft 16 kts
2026-05-03 22:02 53.36042 -2.27842 252 ft 16 kts 342°
2026-05-03 22:02 53.36129 -2.27952 253 ft 16 kts 314°
2026-05-03 22:02 53.36212 -2.28091 254 ft 23 kts 315°
2026-05-03 22:03 53.36328 -2.28291 255 ft 24 kts 314°
2026-05-03 22:03 53.36447 -2.28488 256 ft 24 kts 315°
2026-05-03 22:03 53.36561 -2.28693 256 ft 24 kts 297°
2026-05-03 22:03 53.36641 -2.28745 256 ft 12 kts 31°
2026-05-03 22:04 53.36701 -2.28650 255 ft 12 kts 46°
2026-05-03 22:04 53.36754 -2.28621 255 ft 3 kts 321°
2026-05-03 22:04 53.36793 -2.28683 255 ft 0 kts 314°